Weather in Avdotyino

Russia / Vladimir Oblast     56°18′22″N   39°49′33″E
temp.,
°C
wind,
m/s
gust,
m/s
humid.,
%
clouds,
%
prec.,
mm/h
press.,
hPa
HPBL,
m
3 march, wed
wed300:00−2nnw6129389 0.2 1008551
03:00−6nw6138957 0.2 1011378
06:00−8nw6139219 0.0 1012420
09:00−7nw6129050 0.0 1014516
12:00−3nw6108830 0.0 1013743
15:00−1w5108965 0.1 1012940
18:00−2w5129295 0.1 1009549
21:00−2w6129595 0.3 1009732
4 march, thu
thu400:00−2wsw61291100 0.1 1005669
03:00−1wsw61395100 0.5 1002679
06:00+1w71496100 0.6 999855
09:00−1wnw51287100 2.8 999858
12:00−1nw61078100 0.0 999976
15:00−2nw4782100 0.0 1000694
18:00−4nnw3591100 0.0 1000148
21:00−6nnw3593100 0.0 1000133
5 march, fri
fri500:00−8n3594100 0.0 1001113
03:00−11nnw349694 0.0 100358
06:00−13nnw349626 0.0 100551
09:00−11nw229514 0.0 100688
12:00−6w12841 0.0 1007315
15:00−4ssw238129 0.0 1008614
18:00−6s2393100 0.2 100922
21:00−7nnw5989100 3.4 1011314
6 march, sat
sat600:00−12nw479232 0.0 101295
03:00−13nw369516 0.0 1013100
06:00−14nw499546 0.0 1014190
09:00−15nnw599022 0.0 1015312
12:00−11nw47830 0.0 1016564
15:00−9wnw477915 0.0 10151037
18:00−11wsw348794 0.0 101447
21:00−12wsw369279 0.0 101397
7 march, sun
sun700:00−12sw49950 0.0 1010168
03:00−10ssw6139047 0.0 1007508
06:00−8ssw81593100 0.4 1002867
09:00−6sw91693100 1.4 9961100
12:00−3sw91693100 1.2 9931200
15:00−2wsw91396100 2.8 9911026
18:00−6wnw61290100 1.3 993894
21:00−9wsw6148354 2.4 991468